Alexandria, MN

5:27 PM CDT on September 23, 2017 (GMT -0500)
Chandler

Weather History for KAXN - January, 2013

Change the Weather History Date:

Wednesday, January 2, 2013

  Actual Average Record
Temperature  
Mean Temperature 17 °F -  
Max Temperature 25 °F 18 °F 40 °F (1964)
Min Temperature 10 °F 0 °F -21 °F (1974)
Degree Days  
Heating Degree Days 48    
Moisture  
Dew Point 13 °F    
Average Humidity 88    
Maximum Humidity 93    
Minimum Humidity 78    
Precipitation  
Precipitation 0.00 in - - ()
Sea Level Pressure  
Sea Level Pressure 29.91 in    
Wind  
Wind Speed 8 mph (SW)    
Max Wind Speed 15 mph    
Max Gust Speed -    
Visibility 6 miles    
Events Snow    
Averages and records for this station are not official NWS values.
T = Trace of Precipitation, MM = Missing Value Source: NWS Daily Summary

Daily Weather History Graph

Daily Weather History Graph

Search for Another Location

Airport or City:

Trip Planner

Search our weather history database for the weather conditions in past years. The results will help you decide how hot, cold, wet, or windy it might be!

Date:

Astronomy

Jan. 02, 2013 Rise Set
Actual Time 8:03 AM CST 4:48 PM CST
Civil Twilight 7:28 AM CST 5:23 PM CST
Nautical Twilight 6:51 AM CST 6:00 PM CST
Astronomical Twilight 6:14 AM CST 6:36 PM CST
Moon 10:41 PM CST (1/2) 10:27 AM CST (1/2)
Length of Visible Light 9h 54m
Length of Day
8h 45m
Waning Gibbous, 75% of the Moon is Illuminated
Jan 2
Waning Gibbous
Jan 4
Last Quarter
Jan 11
New
Jan 18
First Quarter
Jan 26
Full

Hourly Weather History & Observations

Time (CST) Temp. Windchill Dew Point Humidity Pressure Visibility Wind Dir Wind Speed Gust Speed Precip Events Conditions
12:53 AM 18.0 °F 3.6 °F 15.1 °F 88% 30.00 in 9.0 mi SW 15.0 mph - N/A   Overcast
1:44 AM 15.8 °F 5.1 °F 12.2 °F 86% 29.88 in 9.0 mi South 8.1 mph - N/A   Partly Cloudy
1:53 AM 14.0 °F 3.9 °F 10.9 °F 88% 29.97 in 9.0 mi South 6.9 mph - N/A   Partly Cloudy
3:53 AM 10.9 °F -0.8 °F 8.1 °F 88% 29.96 in 10.0 mi SSW 8.1 mph - N/A   Partly Cloudy
4:53 AM 12.0 °F 0.5 °F 8.1 °F 84% 29.95 in 10.0 mi SW 8.1 mph - N/A   Overcast
5:21 AM 12.2 °F 0.7 °F 10.4 °F 92% 29.86 in 10.0 mi SW 8.1 mph - N/A   Overcast
5:53 AM 14.0 °F 3.9 °F 10.9 °F 88% 29.94 in 9.0 mi SSW 6.9 mph - N/A   Overcast
6:22 AM 14.0 °F 3.9 °F 10.4 °F 86% 29.86 in 8.0 mi SSW 6.9 mph - N/A   Overcast
6:53 AM 14.0 °F 5.1 °F 10.9 °F 88% 29.94 in 4.0 mi SSW 5.8 mph - 0.00 in Snow Light Snow
7:33 AM 14.0 °F 6.5 °F 10.4 °F 86% 29.85 in 4.0 mi SSW 4.6 mph - 0.00 in Snow Light Snow
7:53 AM 15.1 °F 5.2 °F 10.9 °F 84% 29.94 in 3.0 mi SSW 6.9 mph - 0.00 in Snow Light Snow
8:04 AM 15.8 °F 8.6 °F 12.2 °F 86% 29.86 in 4.0 mi SSW 4.6 mph - 0.00 in Snow Light Snow
8:12 AM 15.8 °F 8.6 °F 12.2 °F 86% 29.86 in 4.0 mi SSW 4.6 mph - 0.00 in Snow Light Snow
8:28 AM 15.8 °F 6.1 °F 12.2 °F 86% 29.86 in 2.0 mi SSW 6.9 mph - 0.00 in Snow Light Snow
8:44 AM 15.8 °F 6.1 °F 12.2 °F 86% 29.86 in 6.0 mi SW 6.9 mph - 0.00 in   Overcast
9:23 AM 17.6 °F 9.3 °F 14.0 °F 86% 29.87 in 2.5 mi SSW 5.8 mph - N/A   Overcast
9:37 AM 17.6 °F 8.2 °F 15.8 °F 93% 29.88 in 1.8 mi SSW 6.9 mph - N/A   Overcast
9:53 AM 17.1 °F 8.7 °F 15.1 °F 92% 29.96 in 1.8 mi SSW 5.8 mph - N/A   Overcast
10:23 AM 17.6 °F 9.3 °F 15.8 °F 93% 29.88 in 2.0 mi SSW 5.8 mph - N/A   Overcast
10:42 AM 19.4 °F 10.4 °F 15.8 °F 86% 29.89 in 2.5 mi SW 6.9 mph - N/A   Overcast
10:53 AM 19.0 °F 10.0 °F 16.0 °F 88% 29.97 in 3.0 mi SW 6.9 mph - N/A   Overcast
11:32 AM 19.4 °F 11.5 °F 17.6 °F 93% 29.89 in 4.0 mi West 5.8 mph - N/A   Overcast
11:44 AM 19.4 °F 12.8 °F 17.6 °F 93% 29.89 in 5.0 mi WSW 4.6 mph - N/A   Overcast
11:53 AM 19.9 °F 12.1 °F 18.0 °F 92% 29.96 in 5.0 mi West 5.8 mph - N/A   Overcast
12:53 PM 24.1 °F 13.7 °F 19.0 °F 81% 29.95 in 10.0 mi NW 10.4 mph - N/A   Overcast
1:53 PM 25.0 °F 14.8 °F 19.0 °F 78% 29.97 in 10.0 mi NW 10.4 mph - N/A   Overcast